Date,TemperatureHighF,TemperatureAvgF,TemperatureLowF,DewpointHighF,DewpointAvgF,DewpointLowF,HumidityHigh,HumidityAvg,HumidityLow,PressureMaxIn,PressureMinIn,WindSpeedMaxMPH,WindSpeedAvgMPH,GustSpeedMaxMPH,PrecipitationSumIn
2012-12-1,36,30,25,36,27,17,99,91,63,30.58,30.47,4,2,8,0.01
2012-12-2,46,42,36,45,41,36,100,98,91,30.47,30.10,6,2,10,0.11
2012-12-3,52,45,35,46,42,34,100,91,74,30.28,30.08,6,1,10,0.00
2012-12-4,52,47,36,52,46,36,100,99,92,30.29,29.97,5,2,8,0.03
2012-12-5,53,42,28,52,37,18,99,82,65,30.21,29.90,7,3,13,0.02
2012-12-6,36,27,22,22,19,16,82,71,54,30.36,30.21,8,3,12,0.00
2012-12-7,38,33,27,38,30,19,100,89,71,30.29,30.05,3,1,8,0.08
2012-12-8,46,42,38,46,42,38,100,100,99,30.05,29.87,2,0,8,0.18
2012-12-9,44,39,36,44,36,32,100,88,73,30.27,30.00,5,2,9,0.12
2012-12-10,53,47,38,53,47,37,100,99,89,30.07,29.55,8,2,10,0.10
2012-12-11,42,36,28,39,32,25,95,84,70,30.19,29.62,8,2,18,0.01
2012-12-12,36,30,26,28,25,23,91,83,68,30.46,30.18,2,0,8,0.00
2012-12-13,42,32,26,30,26,23,90,77,57,30.50,30.32,5,1,8,0.00
2012-12-14,46,35,27,29,26,23,85,71,46,30.32,30.14,4,1,8,0.00
2012-12-15,44,36,30,30,28,26,89,75,54,30.32,30.22,4,1,8,0.00
2012-12-16,33,32,30,32,30,27,97,92,77,30.26,29.99,7,4,12,0.03
2012-12-17,38,36,33,38,35,32,99,97,95,29.99,29.71,7,3,12,0.46
2012-12-18,44,41,37,43,40,36,100,98,94,29.71,29.46,5,1,10,0.67
2012-12-19,44,37,33,36,30,25,96,77,60,30.10,29.55,8,4,17,0.00
2012-12-20,42,34,27,34,28,24,97,79,62,30.22,29.90,7,3,13,0.10
2012-12-21,54,39,33,53,37,29,100,92,82,29.90,29.05,19,7,29,1.01
2012-12-22,34,31,28,31,25,21,95,79,65,29.76,29.26,5,3,13,0.01
2012-12-23,38,32,29,27,24,21,81,71,60,29.92,29.76,4,1,8,0.01
2012-12-24,35,29,24,26,22,19,93,74,61,30.09,29.92,6,1,8,0.00
2012-12-25,34,29,25,31,26,22,95,89,83,30.28,29.96,6,2,13,0.05
2012-12-26,32,26,18,31,21,16,97,83,61,30.32,29.65,11,3,20,0.00
2012-12-27,35,30,24,34,29,19,98,93,80,29.78,29.38,10,6,17,0.01
2012-12-28,32,26,23,25,22,18,89,83,73,30.08,29.78,10,4,16,0.00
2012-12-29,28,26,22,26,24,21,96,92,85,30.07,29.53,5,2,9,0.00
2012-12-30,30,24,19,24,17,11,94,74,50,30.13,29.57,8,5,14,0.04
2012-12-31,32,26,18,24,19,11,84,74,67,30.13,29.85,7,2,8,0.02